Regional Weather Roundup
Issued by NWS

Home | Current Version | Previous Version | Graphics & Text | Print | Product List | Glossary On
Versions: 1 2 3 4 5 6 7 8 9 10 11 12 13 14 15 16 17 18 19 20 21 22 23 24 25 26 27 28 29 30 31 32 33 34 35 36 37 38 39 40 41 42 43 44 45 46 47 48 49 50
000
ASUS43 KTOP 191208
RWRKS

WEATHER ROUNDUP FOR KANSAS
NATIONAL WEATHER SERVICE GOODLAND KS
700 AM CDT SUN APR 19 2015

NOTE:  "FAIR" INDICATES FEW OR NO CLOUDS BELOW 12,000 FEET WITH NO
SIGNIFICANT WEATHER AND/OR OBSTRUCTIONS TO VISIBILITY.

KSZ001>006-013>018-027>032-041>047-191300-
NORTHWEST KANSAS

CITY           SKY/WX    TMP DP  RH WIND       PRES   REMARKS
GOODLAND       LGT RAIN  45  44  97 N16       29.92R
6HR MIN TEMP:  43; 6HR MAX TEMP:  47; 6HR PCP:  0.79;

HAYS           CLOUDY    52  43  71 N8        29.79S
HILL CITY      HVY RAIN  51  48  89 NW6       29.85R FOG
6HR MIN TEMP:  50; 6HR MAX TEMP:  51; 6HR PCP:  0.30;

RUSSELL        PTCLDY    47  46  97 N7        29.76F
6HR MIN TEMP:  45; 6HR MAX TEMP:  51;

$$

KSZ061>065-074>080-084>089-191300-
SOUTHWEST KANSAS

CITY           SKY/WX    TMP DP  RH WIND       PRES   REMARKS
DODGE CITY     CLEAR     41  37  86 NW7       29.80R
6HR MIN TEMP:  41; 6HR MAX TEMP:  49;

ELKHART          N/A    N/A N/A N/A MISG        N/A
GARDEN CITY    MOCLDY    41  40  96 N14       29.80R
6HR MIN TEMP:  37; 6HR MAX TEMP:  45;

GREAT BEND     MOCLDY    45  41  87 CALM      29.79R
LIBERAL        CLOUDY    45  36  70 W13       29.81S
PRATT          PTCLDY    45  43  93 W3        29.78R
$$

KSZ066>073-081>083-090>101-191300-
SOUTHEAST KANSAS

CITY           SKY/WX    TMP DP  RH WIND       PRES   REMARKS
CHANUTE        CLOUDY    53  52  96 CALM      29.70F
6HR MIN TEMP:  52; 6HR MAX TEMP:  58; 6HR PCP:  0.18;

COFFEYVILLE    CLOUDY    53  52  96 CALM      29.71S
6HR MIN TEMP:  53; 6HR MAX TEMP:  62; 6HR PCP:  0.02;

HUTCHINSON     MOCLDY    49  47  93 NW3       29.76R
6HR MIN TEMP:  48; 6HR MAX TEMP:  56;

MEDICINE LODGE   N/A     47  47 100 CALM      29.77R
NEWTON         CLOUDY    50  46  87 NW6       29.77R
PARSONS        CLOUDY    53  53 100 CALM      29.72S
6HR MIN TEMP:  53; 6HR MAX TEMP:  61; 6HR PCP:  0.26;

WICHITA INTL   CLOUDY    51  50  96 NW8       29.76R
6HR MIN TEMP:  50; 6HR MAX TEMP:  56; 6HR PCP: TRACE;

WICHITA JABRA  CLOUDY    51  51 100 NW8       29.74R
6HR MIN TEMP:  51; 6HR MAX TEMP:  54; 6HR PCP: TRACE;

WICHITA MCCONL CLOUDY    52  52 100 NW7       29.75R
WINFIELD       CLOUDY    51  51 100 SW8       29.75R
6HR MIN TEMP:  49; 6HR MAX TEMP:  54; 6HR PCP:  0.01;

$$

KSZ007>012-019>026-033>040-048>060-102>105-191300-
NORTHEAST KANSAS

CITY           SKY/WX    TMP DP  RH WIND       PRES   REMARKS
CONCORDIA      CLOUDY    52  51  97 NW5       29.77S
6HR MIN TEMP:  52; 6HR MAX TEMP:  54; 6HR PCP: TRACE;

EMPORIA        CLOUDY    51  50  96 NW6       29.72S
6HR MIN TEMP:  51; 6HR MAX TEMP:  54; 6HR PCP:  0.36;

LAWRENCE       MOCLDY    53  51  93 NW8       29.70S
6HR MIN TEMP:  52; 6HR MAX TEMP:  57; 6HR PCP:  0.17;

MANHATTAN      CLOUDY    53  51  93 VRB3      29.75R
6HR MIN TEMP:  51; 6HR MAX TEMP:  56; 6HR PCP:  0.22;

MARYSVILLE     CLOUDY    52  52 100 CALM      29.75S
OLATHE IND     MOCLDY    53  52  96 NW7       29.70R
6HR MIN TEMP:  51; 6HR MAX TEMP:  59; 6HR PCP:  0.36;

OLATHE EXE     MOCLDY    53  52  96 N6        29.68R
6HR MIN TEMP:  52; 6HR MAX TEMP:  60; 6HR PCP:  0.12;

SALINA         CLOUDY    51  49  92 NW7       29.77R
6HR MIN TEMP:  51; 6HR MAX TEMP:  56;

TOPEKA BILLARD CLOUDY    53  52  96 W6        29.72S
6HR MIN TEMP:  53; 6HR MAX TEMP:  57; 6HR PCP:  0.06;

TOPEKA FORBES  CLOUDY    53  51  93 NW7       29.71S
6HR MIN TEMP:  52; 6HR MAX TEMP:  58; 6HR PCP:  0.10;

$$



USA.gov is the U.S. government's official web portal to all federal, state and local government web resources and services.